Location: Aytr�
(46.1357°N, 1.1145°W)
Time: 06:55:13
(UTC+00:00)

Cosmos 1862 Rocket - Pass Details

Date: 03 March 2021
Orbit: 603 x 634 km, 82.5° (Epoch: 18 April)

Event Time Altitude Azimuth Distance (km) Brightness Sun altitude
Rises 18:59:24 0° 348° (NNW) 2,944 7.2 -12.2°
Reaches altitude 10° 19:01:40 10° 346° (NNW) 2,031 6.4 -12.5°
Maximum altitude 19:06:08 66° 264° (W) 696 4.0 -13.3°
Drops below altitude 10° 19:10:33 10° 183° (S) 2,008 6.2 -14.1°
Sets 19:12:46 0° 180° (S) 2,907 7.0 -14.5°
